Temp
67 67 67 68 69 70 70 70 70 70 70 70 70 71 71 71 70 70 69 69 68 67 67 68 67 67 67 66 66 66 66 66 66 65 64 63 63 62 61 60 60 60 61 61 60 60 63 63 63 63 63 63 61 61 60 60 60 63 59 59 61 61 61
66 66 67 68 69 70 70 70 70 69 70 70 70 70 70 70 70 69 68 69 68 68 67 68 67 66 66 65 66 66 66 66 67 67 65 64 64 61 61 60 61 61 61 61 62 64 63 63 63 63 62 61 60 60 61 61 60 59 59 59 60 59 59
65 66 67 68 68 69 69 70 70 70 70 70 70 69 68 69 70 69 68 68 67 67 67 66 66 65 66 66 65 65 65 65 65 65 65 64 63 62 61 60 60 61 61 64 64 65 64 62 62 61 61 61 61 60 60 59 60 60 60 59 59 58 58
65 66 67 69 69 70 70 70 70 70 71 70 69 68 69 69 69 69 69 69 68 67 66 65 65 65 65 66 65 65 65 65 65 65 64 62 62 61 60 60 60 61 63 62 64 64 65 62 62 61 63 60 61 61 60 59 60 59 59 59 60 59 59
66 67 68 68 68 69 69 69 70 70 70 70 69 69 70 69 69 69 69 70 68 67 66 66 66 66 65 65 65 65 65 66 64 64 63 62 61 60 60 61 60 60 61 62 63 64 62 61 62 61 61 60 61 61 61 61 60 60 59 58 59 61 60
66 67 68 68 68 68 69 70 70 70 70 68 67 68 69 69 70 69 69 68 67 67 66 66 66 66 64 65 65 64 64 63 62 62 62 63 61 61 61 62 61 62 63 63 64 61 61 60 60 61 61 62 62 62 62 61 62 61 60 59 59 60 61
67 68 68 68 68 68 69 69 70 71 70 69 69 70 69 69 69 68 69 69 69 67 67 66 66 65 64 65 65 64 63 62 62 63 63 62 62 61 60 62 63 61 63 61 61 61 61 60 60 60 60 60 62 61 60 60 60 61 60 60 60 60 61
68 68 68 69 69 69 68 69 70 70 70 69 69 69 68 68 68 68 68 68 68 68 67 66 66 65 64 65 64 64 63 61 61 62 62 61 61 62 62 62 61 64 63 63 63 62 61 61 62 60 60 60 59 60 60 60 59 60 60 60 59 61 64
69 69 69 69 69 69 69 69 69 69 68 69 69 68 68 68 68 68 67 68 67 67 67 68 67 66 64 63 63 62 61 62 62 62 62 61 60 61 62 64 63 63 60 61 61 62 62 61 60 59 59 59 58 59 59 58 58 59 59 59 59 59 60
67 68 69 69 69 69 69 69 69 68 68 68 68 66 67 67 67 68 68 68 69 68 67 67 66 65 64 64 64 64 64 63 63 62 61 61 60 60 62 63 63 63 61 62 62 61 62 60 59 59 58 59 58 58 57 58 58 59 59 60 59 59 60
68 68 68 68 68 68 68 68 67 67 68 67 67 67 67 67 67 68 68 69 68 68 69 67 66 65 64 64 63 63 63 62 61 61 60 60 60 60 62 62 61 63 65 61 60 60 60 61 60 58 59 61 59 58 57 58 58 58 59 60 59 59 60
68 67 67 67 67 67 66 67 66 66 67 67 68 68 68 67 68 68 68 69 70 68 67 67 67 65 64 63 62 60 60 60 59 59 59 60 60 61 61 61 61 61 63 61 61 60 60 59 61 61 59 60 59 58 58 58 57 57 57 57 59 59 59
67 67 67 66 66 67 67 66 66 67 68 68 68 68 69 68 68 68 68 68 68 67 67 66 65 64 63 63 62 60 60 59 60 59 60 62 59 60 61 62 62 61 61 62 61 61 60 61 59 62 60 60 60 60 59 58 58 56 56 57 57 57 58
68 67 67 67 66 66 65 66 66 67 68 68 67 68 69 70 70 68 68 67 66 66 66 66 65 63 62 62 61 60 60 59 60 61 59 59 59 60 61 61 59 60 61 61 60 61 62 61 62 62 61 60 60 60 60 58 58 57 57 57 56 57 58
66 65 66 66 65 66 66 65 66 66 66 66 67 68 69 70 69 68 67 66 66 67 66 65 63 62 62 61 61 60 59 59 60 60 62 60 59 61 62 62 62 60 60 61 61 62 60 61 62 62 61 61 60 60 61 59 60 60 59 57 57 56 57
65 65 65 65 66 66 66 66 66 67 66 65 67 68 68 68 68 67 65 65 65 65 64 64 62 62 62 61 61 59 59 59 61 60 60 61 60 59 60 62 60 61 61 61 60 61 62 60 61 60 61 60 60 59 61 61 62 68 70 69 60 56 57
65 65 65 65 66 66 67 67 66 66 66 66 68 68 68 68 67 66 66 66 66 66 65 63 61 62 62 61 61 60 58 59 59 59 61 59 60 59 61 60 60 59 60 60 60 60 64 60 60 60 61 60 60 60 62 63 65 71 68 68 70 61 57
65 65 65 66 66 66 66 66 65 65 66 67 68 69 67 67 66 66 66 66 66 67 66 64 62 62 61 61 60 59 59 60 59 59 59 60 59 58 59 59 60 60 60 60 60 62 63 62 60 60 60 62 59 59 61 60 70 68 68 69 68 69 59
66 66 66 66 66 66 66 66 67 67 67 67 69 69 68 68 67 66 66 67 67 67 65 64 64 63 62 60 60 60 60 59 59 59 58 58 58 58 60 60 61 59 60 59 60 61 61 60 60 59 58 60 61 62 61 61 70 67 69 68 68 67 65
67 67 67 67 67 67 67 67 67 68 68 68 70 70 69 70 68 68 68 68 67 66 65 64 64 63 62 60 60 60 60 59 58 58 58 58 58 60 60 59 60 59 60 60 62 60 61 59 61 60 59 59 59 60 59 59 68 68 68 68 67 67 66
67 67 67 67 67 67 67 67 68 68 68 69 70 69 69 68 69 68 68 67 66 66 65 65 64 63 61 60 61 61 60 60 58 59 58 58 59 60 59 59 59 60 60 59 60 60 59 60 59 60 62 61 60 60 59 61 69 67 68 67 67 66 67
67 68 67 68 67 67 68 68 68 68 68 70 70 69 69 68 69 68 67 67 66 65 65 64 63 62 61 60 61 61 61 60 58 60 59 58 58 59 59 59 59 59 60 60 58 60 59 59 59 60 60 59 59 60 59 59 66 66 67 66 65 68 61
69 69 69 70 70 69 70 70 69 69 70 70 70 69 69 69 69 68 67 66 65 65 64 64 62 60 61 61 60 62 61 60 60 60 59 58 58 58 58 58 59 58 60 59 59 59 58 59 59 60 59 60 61 60 59 59 64 65 65 65 65 65 56
71 71 71 71 71 71 71 70 71 71 70 70 69 69 69 69 68 67 66 65 64 64 63 62 61 61 61 61 62 62 62 61 61 61 61 58 59 60 60 59 59 59 62 59 58 58 59 59 59 59 60 62 61 60 60 61 64 65 63 63 64 65 57
72 71 71 71 71 70 71 71 71 71 71 70 68 68 69 69 68 67 65 64 64 63 61 60 60 60 61 62 64 64 63 62 60 61 61 59 59 60 58 58 60 61 62 57 57 59 56 62 60 58 58 59 61 69 66 59 63 64 62 63 63 63 58
70 70 70 71 72 72 72 72 71 70 69 69 69 70 69 68 67 66 65 64 63 61 60 60 61 61 63 64 66 64 62 61 61 60 61 60 60 59 59 60 60 60 60 58 59 59 58 59 60 58 59 59 60 61 61 61 60 64 62 62 62 65 60
71 70 68 71 71 72 71 71 71 70 69 69 70 70 69 68 66 65 64 62 61 61 61 62 61 62 64 65 65 64 63 61 61 61 61 60 60 59 61 61 60 59 58 59 59 58 58 58 58 59 59 59 60 60 60 62 61 64 61 60 62 64 66
71 71 72 72 71 71 71 71 69 70 71 70 70 69 68 67 66 64 63 61 61 61 62 62 61 61 62 63 64 63 62 62 60 61 63 60 59 60 60 60 59 59 59 58 58 57 58 57 60 58 58 59 59 59 60 63 71 63 63 60 60 60 65
70 70 70 70 70 71 71 69 68 68 69 69 69 69 68 67 65 65 64 61 62 62 61 62 62 61 60 62 62 62 62 61 63 63 63 62 62 59 59 58 59 59 60 58 58 57 57 57 57 57 57 58 58 58 59 59 62 72 65 63 59 59 61
71 71 71 72 72 71 70 68 67 66 67 67 68 68 68 68 65 65 63 62 62 61 62 62 61 61 61 62 62 61 61 61 62 60 60 62 61 60 59 59 59 59 60 58 58 57 57 56 58 56 56 57 57 59 59 60 58 66 72 66 60 58 57
71 70 70 70 71 71 70 69 67 66 67 67 67 67 67 68 66 65 63 61 61 62 62 62 61 61 61 60 60 61 60 60 60 60 60 60 61 60 60 59 57 58 58 58 57 57 57 56 57 58 59 57 59 57 58 59 58 58 68 71 66 59 57
70 70 71 71 70 70 71 70 69 68 67 66 67 66 66 65 66 64 63 61 63 62 62 62 61 61 61 60 59 60 60 59 59 59 60 61 60 61 60 61 61 61 59 57 57 57 59 57 57 57 57 57 57 57 58 60 57 59 59 67 70 66 60
69 70 70 70 71 70 70 69 69 68 67 65 65 66 65 63 64 64 62 62 63 63 62 62 62 62 61 59 59 60 59 60 60 59 60 59 60 61 62 60 59 60 62 60 57 57 57 60 60 60 58 60 57 57 57 58 57 58 58 57 57 59 61
69 69 70 72 71 70 70 69 68 65 65 64 64 64 64 63 62 63 63 64 64 64 63 63 62 61 60 60 60 60 60 59 66 66 59 60 61 60 59 59 61 60 61 60 59 56 57 58 59 59 60 57 57 56 56 56 56 58 58 57 57 59 57
69 70 70 70 70 70 68 67 66 65 65 64 63 63 63 62 62 63 63 63 64 63 63 62 64 63 60 59 58 60 63 62 62 61 61 60 61 60 61 60 61 61 61 61 59 61 62 60 58 59 59 58 58 58 59 58 57 60 60 62 60 61 60
69 69 70 72 71 69 68 67 66 65 65 64 63 63 63 62 62 63 65 63 63 63 63 63 63 60 60 59 58 60 62 62 60 61 62 61 59 61 62 67 64 62 62 63 69 67 62 61 61 61 59 58 59 61 60 57 60 60 56 53 52 52 54
69 70 71 72 68 67 66 65 66 65 64 64 64 64 64 62 62 62 64 64 63 63 63 61 61 60 58 60 60 62 63 62 60 61 60 61 60 61 61 62 63 54 56 61 68 63 56 51 54 57 60 62 60 61 61 61 55 49 47 43 42 42 42
72 71 72 72 68 66 66 65 65 65 64 64 64 64 64 63 63 63 63 63 64 63 62 61 61 59 60 60 60 64 65 62 63 63 62 60 60 60 60 60 59 61 57 53 54 56 54 50 49 49 51 55 58 63 59 57 48 44 45 46 44 43 40
MSLP
1014.27 1014.91 1015.27 1015.43 1015.67 1015.87 1016.07 1016.31 1016.47 1016.75 1016.91 1017.15 1017.31 1017.51 1017.75 1017.99 1018.19 1018.31 1018.63 1018.79 1018.99 1019.23 1019.27 1019.23 1019.43 1019.55 1019.75 1019.99 1020.15 1020.31 1020.47 1020.67 1020.83 1021.07 1021.27 1021.47 1021.55 1021.67 1021.67 1021.71 1021.67 1021.55 1021.43 1021.43 1021.35 1021.31 1021.23 1021.11 1021.07 1021.07 1020.99 1020.87 1020.83 1020.71 1020.71 1020.75 1020.63 1020.55 1020.47 1020.39 1020.31 1020.27 1020.15
1014.79 1015.07 1015.35 1015.51 1015.75 1016.03 1016.19 1016.35 1016.55 1016.75 1016.95 1017.11 1017.31 1017.55 1017.91 1018.31 1018.31 1018.51 1018.79 1018.91 1019.03 1019.19 1019.35 1019.43 1019.55 1019.75 1019.91 1020.11 1020.31 1020.47 1020.67 1020.83 1020.95 1021.11 1021.35 1021.55 1021.63 1021.71 1021.63 1021.63 1021.55 1021.51 1021.43 1021.39 1021.31 1021.31 1021.31 1021.31 1021.23 1021.23 1021.23 1021.11 1021.03 1020.91 1020.79 1020.75 1020.79 1020.63 1020.51 1020.47 1020.43 1020.35 1020.27
1014.99 1015.19 1015.39 1015.55 1015.79 1016.03 1016.27 1016.43 1016.63 1016.71 1016.91 1017.15 1017.39 1017.87 1018.15 1018.35 1018.43 1018.51 1018.71 1018.99 1019.27 1019.35 1019.43 1019.59 1019.79 1019.95 1020.11 1020.27 1020.51 1020.75 1020.83 1020.99 1021.19 1021.31 1021.47 1021.63 1021.71 1021.67 1021.63 1021.63 1021.63 1021.55 1021.47 1021.39 1021.43 1021.47 1021.43 1021.39 1021.31 1021.27 1021.27 1021.31 1021.19 1021.03 1020.95 1020.87 1020.83 1020.75 1020.55 1020.47 1020.51 1020.43 1020.35
1015.15 1015.31 1015.39 1015.47 1015.67 1015.91 1016.11 1016.31 1016.59 1016.79 1016.99 1017.23 1017.71 1018.39 1018.71 1018.59 1018.59 1018.59 1018.67 1018.91 1019.31 1019.63 1019.83 1019.95 1020.03 1020.15 1020.27 1020.47 1020.75 1020.95 1021.07 1021.15 1021.23 1021.39 1021.55 1021.63 1021.71 1021.67 1021.67 1021.67 1021.63 1021.55 1021.51 1021.59 1021.55 1021.55 1021.51 1021.43 1021.39 1021.31 1021.27 1021.39 1021.39 1021.23 1021.07 1020.99 1020.91 1020.83 1020.63 1020.51 1020.43 1020.51 1020.43
1015.19 1015.23 1015.47 1015.71 1015.91 1016.07 1016.27 1016.43 1016.63 1016.83 1017.19 1017.47 1017.99 1018.39 1018.83 1018.91 1018.79 1018.79 1018.87 1018.99 1019.35 1019.71 1019.79 1019.99 1020.19 1020.35 1020.47 1020.63 1020.87 1021.03 1021.15 1021.23 1021.35 1021.47 1021.63 1021.71 1021.75 1021.75 1021.79 1021.79 1021.75 1021.67 1021.59 1021.59 1021.59 1021.55 1021.59 1021.59 1021.51 1021.47 1021.43 1021.47 1021.55 1021.47 1021.31 1021.15 1021.11 1020.99 1020.79 1020.67 1020.51 1020.43 1020.47
1014.95 1015.19 1015.39 1015.63 1015.83 1015.99 1016.15 1016.27 1016.47 1016.71 1017.03 1017.47 1017.83 1018.07 1018.31 1018.79 1018.95 1018.99 1019.03 1019.31 1019.67 1019.83 1019.95 1020.07 1020.35 1020.55 1020.71 1020.79 1020.91 1021.11 1021.19 1021.31 1021.39 1021.51 1021.63 1021.79 1021.83 1021.91 1021.87 1021.87 1021.79 1021.67 1021.67 1021.75 1021.75 1021.79 1021.75 1021.75 1021.71 1021.67 1021.67 1021.67 1021.63 1021.63 1021.51 1021.39 1021.31 1021.19 1021.11 1020.95 1020.79 1020.67 1020.63
1014.39 1014.75 1015.11 1015.43 1015.63 1015.87 1016.11 1016.31 1016.51 1016.71 1016.99 1017.43 1017.67 1017.95 1018.27 1018.59 1018.87 1018.95 1019.07 1019.43 1019.67 1019.95 1020.11 1020.27 1020.51 1020.67 1020.79 1020.79 1020.99 1021.07 1021.27 1021.43 1021.47 1021.67 1021.75 1021.87 1021.95 1021.99 1021.95 1021.87 1021.83 1021.87 1021.91 1021.87 1021.95 1021.95 1021.95 1021.95 1021.87 1021.79 1021.75 1021.71 1021.75 1021.71 1021.67 1021.63 1021.55 1021.39 1021.23 1021.15 1021.03 1020.83 1020.71
1014.15 1014.67 1014.95 1015.15 1015.39 1015.71 1016.07 1016.31 1016.55 1016.79 1017.11 1017.43 1017.71 1018.07 1018.47 1018.71 1018.83 1018.99 1019.19 1019.39 1019.67 1019.91 1020.19 1020.39 1020.63 1020.71 1020.75 1020.83 1020.99 1021.19 1021.39 1021.59 1021.63 1021.75 1021.87 1021.99 1021.99 1021.99 1021.91 1021.91 1021.91 1021.83 1021.79 1021.87 1021.95 1021.95 1022.07 1022.07 1021.95 1021.87 1021.79 1021.79 1021.79 1021.75 1021.71 1021.71 1021.67 1021.55 1021.43 1021.39 1021.35 1021.15 1020.95
1014.55 1014.51 1014.75 1015.07 1015.39 1015.75 1015.99 1016.19 1016.47 1016.83 1017.11 1017.43 1017.75 1018.15 1018.43 1018.59 1018.79 1018.95 1019.23 1019.51 1019.71 1019.95 1020.15 1020.19 1020.47 1020.63 1020.75 1020.91 1021.11 1021.27 1021.47 1021.63 1021.79 1021.87 1021.95 1022.03 1022.07 1022.07 1022.03 1021.95 1021.95 1021.95 1022.11 1022.23 1022.23 1022.07 1022.03 1022.07 1022.03 1021.95 1021.87 1021.83 1021.83 1021.79 1021.79 1021.83 1021.75 1021.71 1021.59 1021.59 1021.55 1021.47 1021.31
1014.83 1014.95 1015.11 1015.31 1015.59 1015.79 1015.95 1016.23 1016.63 1017.03 1017.35 1017.59 1017.91 1018.23 1018.43 1018.51 1018.67 1018.87 1019.19 1019.43 1019.63 1019.87 1020.03 1020.23 1020.47 1020.63 1020.83 1021.03 1021.19 1021.31 1021.47 1021.79 1021.95 1022.07 1022.11 1022.15 1022.19 1022.19 1022.07 1022.03 1022.11 1022.15 1022.19 1022.15 1022.11 1022.11 1022.03 1022.03 1022.07 1021.99 1021.95 1021.95 1021.95 1021.87 1021.83 1021.83 1021.83 1021.75 1021.71 1021.67 1021.63 1021.59 1021.47
1015.07 1015.19 1015.39 1015.71 1015.99 1016.19 1016.31 1016.55 1016.87 1017.15 1017.23 1017.51 1017.87 1018.07 1018.23 1018.27 1018.55 1018.87 1019.15 1019.27 1019.51 1019.75 1019.95 1020.27 1020.47 1020.75 1020.99 1021.19 1021.43 1021.51 1021.67 1021.95 1022.11 1022.23 1022.27 1022.27 1022.39 1022.35 1022.27 1022.31 1022.39 1022.27 1022.19 1022.11 1022.23 1022.39 1022.43 1022.31 1022.15 1022.11 1022.03 1022.03 1022.07 1022.07 1021.95 1021.83 1021.83 1021.79 1021.79 1021.75 1021.67 1021.63 1021.55
1015.47 1015.67 1015.83 1015.95 1016.23 1016.43 1016.63 1016.75 1016.95 1017.19 1017.39 1017.51 1017.71 1017.87 1018.03 1018.23 1018.55 1018.83 1019.03 1019.15 1019.31 1019.71 1020.07 1020.35 1020.59 1020.83 1021.11 1021.35 1021.59 1021.75 1021.87 1021.99 1022.15 1022.31 1022.39 1022.47 1022.43 1022.35 1022.31 1022.35 1022.43 1022.43 1022.39 1022.31 1022.31 1022.35 1022.39 1022.39 1022.35 1022.27 1022.19 1022.15 1022.11 1022.07 1022.03 1021.95 1021.79 1021.83 1021.87 1021.83 1021.75 1021.63 1021.59
1015.55 1015.83 1015.99 1016.11 1016.27 1016.43 1016.63 1016.99 1017.19 1017.23 1017.31 1017.35 1017.55 1017.67 1017.83 1018.15 1018.51 1018.79 1019.03 1019.19 1019.43 1019.75 1020.07 1020.39 1020.67 1020.95 1021.23 1021.51 1021.67 1021.87 1021.99 1022.11 1022.15 1022.27 1022.35 1022.39 1022.47 1022.39 1022.39 1022.39 1022.35 1022.39 1022.43 1022.35 1022.27 1022.27 1022.31 1022.35 1022.27 1022.31 1022.31 1022.23 1022.11 1022.07 1022.03 1021.95 1021.83 1021.79 1021.75 1021.79 1021.79 1021.75 1021.67
1015.59 1015.91 1016.07 1016.19 1016.39 1016.59 1016.87 1017.03 1017.19 1017.31 1017.35 1017.47 1017.71 1017.71 1017.83 1018.07 1018.31 1018.67 1018.95 1019.27 1019.59 1019.87 1020.15 1020.43 1020.75 1021.07 1021.31 1021.55 1021.79 1021.99 1022.07 1022.11 1022.19 1022.23 1022.31 1022.27 1022.27 1022.35 1022.47 1022.43 1022.47 1022.55 1022.47 1022.35 1022.31 1022.31 1022.31 1022.31 1022.27 1022.27 1022.31 1022.23 1022.11 1022.07 1022.03 1021.95 1021.87 1021.79 1021.79 1021.75 1021.79 1021.75 1021.75
1015.95 1016.15 1016.31 1016.47 1016.59 1016.59 1016.83 1017.23 1017.39 1017.43 1017.47 1017.59 1017.71 1017.87 1017.95 1018.07 1018.31 1018.59 1018.95 1019.27 1019.59 1019.87 1020.15 1020.35 1020.75 1021.15 1021.39 1021.63 1021.83 1021.99 1022.11 1022.11 1022.15 1022.19 1022.23 1022.23 1022.27 1022.27 1022.31 1022.31 1022.31 1022.47 1022.55 1022.47 1022.39 1022.31 1022.23 1022.19 1022.15 1022.23 1022.35 1022.27 1022.19 1022.07 1021.99 1021.99 1021.87 1021.79 1021.75 1021.71 1021.75 1021.79 1021.79
1015.91 1016.11 1016.35 1016.51 1016.55 1016.59 1016.75 1016.95 1017.15 1017.27 1017.47 1017.71 1017.75 1017.87 1018.03 1018.19 1018.39 1018.63 1019.07 1019.43 1019.63 1019.91 1020.15 1020.39 1020.83 1021.15 1021.43 1021.63 1021.79 1021.99 1022.19 1022.23 1022.07 1022.15 1022.23 1022.27 1022.31 1022.35 1022.35 1022.31 1022.27 1022.31 1022.35 1022.27 1022.27 1022.27 1022.11 1022.07 1022.15 1022.19 1022.19 1022.23 1022.15 1022.07 1021.99 1021.99 1021.87 1021.63 1021.55 1021.55 1021.63 1021.79 1021.79
1015.91 1016.03 1016.07 1016.27 1016.35 1016.43 1016.51 1016.75 1017.07 1017.27 1017.51 1017.67 1017.71 1017.83 1018.03 1018.19 1018.35 1018.71 1019.11 1019.35 1019.63 1019.91 1020.11 1020.35 1020.83 1021.15 1021.39 1021.67 1021.75 1021.99 1022.23 1022.11 1022.11 1022.15 1022.31 1022.43 1022.47 1022.47 1022.35 1022.35 1022.47 1022.43 1022.39 1022.39 1022.39 1022.27 1022.15 1022.11 1022.11 1022.11 1022.15 1022.15 1022.07 1021.99 1022.03 1021.91 1021.79 1021.59 1021.67 1021.59 1021.47 1021.55 1021.67
1015.83 1015.91 1015.99 1016.19 1016.35 1016.51 1016.79 1016.75 1017.03 1017.31 1017.47 1017.59 1017.67 1017.79 1018.03 1018.23 1018.43 1018.75 1019.11 1019.31 1019.55 1019.79 1019.99 1020.39 1020.75 1021.11 1021.39 1021.55 1021.79 1022.07 1022.07 1022.07 1022.07 1022.23 1022.39 1022.43 1022.47 1022.47 1022.43 1022.39 1022.51 1022.55 1022.55 1022.51 1022.43 1022.23 1022.11 1022.11 1022.07 1022.03 1021.95 1021.87 1021.95 1021.95 1021.87 1021.87 1021.67 1021.67 1021.63 1021.55 1021.51 1021.43 1021.59
1015.43 1015.59 1015.63 1015.87 1016.19 1016.47 1016.71 1016.87 1016.83 1017.03 1017.27 1017.43 1017.59 1017.79 1017.95 1018.03 1018.35 1018.71 1018.91 1019.19 1019.43 1019.67 1020.11 1020.39 1020.67 1021.03 1021.31 1021.59 1021.79 1021.95 1022.03 1022.03 1022.15 1022.27 1022.47 1022.47 1022.47 1022.47 1022.47 1022.47 1022.51 1022.59 1022.55 1022.55 1022.39 1022.27 1022.19 1022.11 1022.03 1021.99 1021.87 1021.87 1021.83 1021.87 1021.79 1021.79 1021.59 1021.59 1021.55 1021.51 1021.43 1021.39 1021.39
1014.91 1015.15 1015.51 1015.71 1015.91 1016.19 1016.59 1016.71 1016.83 1016.91 1017.11 1017.27 1017.35 1017.59 1017.75 1017.79 1018.23 1018.59 1018.71 1019.03 1019.43 1019.79 1020.19 1020.39 1020.67 1020.91 1021.23 1021.55 1021.75 1021.87 1021.95 1022.07 1022.27 1022.35 1022.39 1022.39 1022.39 1022.39 1022.39 1022.47 1022.55 1022.55 1022.51 1022.43 1022.39 1022.27 1022.19 1022.11 1022.07 1021.95 1021.95 1021.83 1021.79 1021.75 1021.67 1021.67 1021.51 1021.47 1021.47 1021.43 1021.35 1021.31 1021.31
1014.99 1015.15 1015.47 1015.79 1016.11 1016.23 1016.35 1016.59 1016.83 1017.07 1017.35 1017.51 1017.47 1017.63 1017.83 1018.19 1018.39 1018.67 1018.99 1019.23 1019.63 1019.91 1020.23 1020.47 1020.75 1020.99 1021.23 1021.47 1021.67 1021.83 1021.95 1022.11 1022.39 1022.35 1022.39 1022.35 1022.31 1022.35 1022.43 1022.55 1022.63 1022.55 1022.43 1022.39 1022.35 1022.31 1022.23 1022.11 1022.03 1021.87 1021.79 1021.71 1021.63 1021.67 1021.59 1021.51 1021.31 1021.35 1021.35 1021.31 1021.27 1021.27 1021.27
1014.91 1015.11 1015.55 1015.63 1015.87 1016.15 1016.35 1016.39 1016.63 1016.91 1017.23 1017.31 1017.51 1017.71 1017.87 1018.27 1018.35 1018.67 1019.11 1019.23 1019.59 1019.95 1020.19 1020.51 1020.79 1021.03 1021.19 1021.43 1021.63 1021.79 1021.83 1022.07 1022.35 1022.23 1022.31 1022.35 1022.39 1022.47 1022.51 1022.59 1022.51 1022.51 1022.35 1022.31 1022.23 1022.15 1022.11 1022.03 1021.91 1021.87 1021.79 1021.67 1021.55 1021.55 1021.55 1021.35 1021.19 1021.19 1021.19 1021.23 1021.23 1021.19 1021.27
1014.27 1014.59 1014.55 1014.71 1014.83 1015.35 1015.55 1015.83 1016.27 1016.55 1016.87 1017.23 1017.47 1017.71 1018.07 1018.31 1018.51 1018.79 1019.19 1019.51 1019.79 1020.03 1020.31 1020.55 1020.83 1020.99 1021.03 1021.15 1021.43 1021.63 1021.79 1022.03 1022.23 1022.15 1022.31 1022.35 1022.47 1022.47 1022.51 1022.59 1022.51 1022.43 1022.19 1022.19 1022.11 1022.03 1022.03 1021.87 1021.79 1021.71 1021.67 1021.55 1021.43 1021.39 1021.39 1021.23 1021.07 1021.03 1021.07 1021.11 1021.15 1021.23 1021.31
1013.63 1014.07 1014.39 1014.63 1014.83 1015.03 1015.39 1015.75 1016.03 1016.35 1016.71 1017.19 1017.47 1017.63 1017.91 1018.19 1018.55 1018.91 1019.35 1019.67 1019.95 1020.19 1020.47 1020.59 1020.83 1020.91 1020.99 1021.07 1021.19 1021.35 1021.63 1021.79 1021.95 1022.11 1022.27 1022.39 1022.39 1022.31 1022.27 1022.31 1022.31 1022.15 1021.95 1022.07 1022.07 1022.03 1021.83 1021.67 1021.63 1021.55 1021.47 1021.39 1021.31 1021.23 1021.23 1021.07 1020.83 1020.83 1020.91 1020.99 1021.07 1021.11 1021.27
1013.67 1013.95 1014.19 1014.43 1014.71 1015.27 1015.55 1015.83 1015.99 1016.31 1016.71 1017.07 1017.59 1017.79 1017.95 1018.31 1018.63 1018.99 1019.47 1019.75 1020.07 1020.31 1020.55 1020.71 1020.79 1020.91 1020.95 1021.07 1021.15 1021.31 1021.39 1021.51 1021.75 1021.91 1022.07 1022.19 1022.15 1022.07 1022.11 1022.15 1022.11 1021.91 1021.83 1021.87 1021.87 1021.79 1021.63 1021.55 1021.55 1021.51 1021.39 1021.27 1021.23 1021.03 1020.91 1020.95 1020.75 1020.63 1020.75 1020.83 1020.95 1021.03 1021.15
1013.67 1013.91 1014.31 1014.39 1014.63 1014.79 1014.99 1015.47 1016.15 1016.47 1016.83 1017.27 1017.51 1017.59 1017.95 1018.39 1018.79 1019.15 1019.51 1019.83 1019.99 1020.31 1020.51 1020.63 1020.67 1020.75 1020.75 1020.87 1021.03 1021.15 1021.31 1021.39 1021.55 1021.75 1021.83 1021.91 1021.87 1021.83 1021.91 1021.91 1021.95 1021.83 1021.83 1021.79 1021.75 1021.71 1021.63 1021.59 1021.55 1021.55 1021.39 1021.19 1021.11 1020.99 1020.87 1020.87 1020.71 1020.55 1020.59 1020.71 1020.79 1020.87 1021.03
1012.87 1013.59 1014.43 1014.55 1014.67 1014.91 1015.43 1015.63 1015.91 1016.35 1016.67 1016.87 1017.19 1017.63 1018.03 1018.43 1018.91 1019.35 1019.55 1019.83 1020.07 1020.27 1020.27 1020.31 1020.47 1020.59 1020.71 1020.83 1020.95 1021.11 1021.23 1021.31 1021.43 1021.59 1021.67 1021.67 1021.63 1021.71 1021.75 1021.79 1021.79 1021.75 1021.83 1021.79 1021.71 1021.71 1021.71 1021.67 1021.55 1021.47 1021.35 1021.15 1021.03 1020.95 1020.79 1020.71 1020.67 1020.43 1020.43 1020.55 1020.67 1020.75 1020.91
1012.71 1013.43 1013.87 1014.15 1014.63 1015.03 1015.43 1015.75 1016.15 1016.39 1016.55 1016.71 1016.99 1017.43 1017.95 1018.39 1018.91 1019.27 1019.55 1019.83 1020.07 1020.03 1019.95 1020.19 1020.35 1020.51 1020.63 1020.83 1020.95 1021.03 1021.15 1021.23 1021.31 1021.39 1021.47 1021.47 1021.55 1021.67 1021.71 1021.63 1021.71 1021.67 1021.63 1021.59 1021.67 1021.67 1021.63 1021.55 1021.47 1021.39 1021.31 1021.11 1021.03 1020.91 1020.79 1020.55 1020.39 1020.27 1020.31 1020.43 1020.55 1020.67 1020.75
1012.63 1013.11 1013.83 1014.35 1014.91 1015.19 1015.51 1015.99 1016.31 1016.51 1016.71 1016.99 1017.23 1017.59 1017.95 1018.31 1018.87 1019.23 1019.47 1019.83 1019.71 1019.75 1019.91 1020.03 1020.27 1020.47 1020.59 1020.71 1020.87 1021.03 1021.07 1021.15 1021.15 1021.27 1021.35 1021.43 1021.43 1021.51 1021.55 1021.51 1021.59 1021.59 1021.51 1021.55 1021.55 1021.59 1021.55 1021.51 1021.43 1021.35 1021.27 1021.15 1020.99 1020.87 1020.75 1020.55 1020.39 1020.15 1020.23 1020.35 1020.47 1020.55 1020.67
1012.43 1012.83 1013.59 1013.99 1014.31 1014.83 1015.31 1015.99 1016.39 1016.79 1017.11 1017.31 1017.51 1017.75 1018.03 1018.27 1018.79 1019.15 1019.51 1019.55 1019.47 1019.71 1019.83 1020.03 1020.23 1020.35 1020.55 1020.71 1020.83 1020.95 1021.03 1021.07 1021.11 1021.19 1021.27 1021.27 1021.31 1021.35 1021.39 1021.39 1021.35 1021.35 1021.35 1021.43 1021.51 1021.51 1021.51 1021.43 1021.31 1021.31 1021.31 1021.23 1021.03 1020.79 1020.59 1020.47 1020.43 1020.23 1020.07 1020.19 1020.35 1020.47 1020.55
1012.43 1012.87 1013.47 1014.07 1014.51 1014.83 1015.31 1015.95 1016.47 1016.83 1017.23 1017.47 1017.71 1017.95 1018.03 1018.19 1018.71 1019.15 1019.43 1019.39 1019.51 1019.63 1019.83 1020.07 1020.23 1020.39 1020.59 1020.71 1020.83 1020.91 1020.95 1021.03 1021.07 1021.11 1021.19 1021.15 1021.19 1021.31 1021.35 1021.35 1021.35 1021.43 1021.27 1021.23 1021.31 1021.35 1021.39 1021.27 1021.23 1021.23 1021.19 1021.15 1021.11 1020.87 1020.63 1020.43 1020.35 1020.31 1020.07 1020.03 1020.15 1020.27 1020.39
1012.63 1012.99 1013.59 1014.19 1014.79 1014.91 1015.27 1015.75 1016.31 1016.63 1017.15 1017.63 1017.67 1017.95 1017.95 1018.19 1018.39 1019.03 1019.11 1019.27 1019.39 1019.47 1019.67 1019.99 1020.23 1020.43 1020.55 1020.67 1020.79 1020.83 1020.91 1021.03 1021.07 1021.03 1020.95 1020.95 1021.03 1021.07 1021.11 1021.15 1021.19 1021.27 1021.19 1021.15 1021.23 1021.27 1021.27 1021.19 1021.11 1021.11 1021.07 1021.03 1020.95 1020.83 1020.63 1020.43 1020.31 1020.19 1020.11 1019.95 1019.95 1020.03 1020.15
1012.71 1013.11 1013.67 1014.31 1014.63 1014.87 1015.39 1015.91 1016.31 1016.83 1017.07 1017.59 1017.75 1017.83 1018.03 1018.23 1018.35 1018.51 1018.87 1019.15 1019.23 1019.35 1019.59 1019.87 1020.11 1020.27 1020.39 1020.55 1020.67 1020.71 1020.87 1020.95 1020.99 1020.99 1020.91 1020.91 1020.95 1020.99 1020.99 1020.99 1021.03 1021.07 1021.03 1021.03 1021.11 1021.11 1021.07 1021.03 1021.07 1020.99 1020.91 1020.87 1020.75 1020.63 1020.47 1020.35 1020.27 1020.15 1020.07 1020.03 1020.03 1019.99 1019.95
1012.87 1013.31 1013.39 1013.63 1014.27 1014.75 1015.39 1015.99 1016.47 1016.87 1017.19 1017.55 1017.71 1017.83 1018.03 1018.19 1018.39 1018.51 1018.67 1018.87 1019.07 1019.27 1019.51 1019.79 1019.99 1020.19 1020.35 1020.39 1020.47 1020.63 1020.75 1020.87 1020.75 1020.75 1020.87 1020.91 1020.91 1020.99 1020.95 1020.91 1020.87 1020.91 1020.87 1020.87 1020.83 1020.87 1020.83 1020.75 1020.75 1020.75 1020.67 1020.63 1020.59 1020.55 1020.43 1020.31 1020.23 1020.07 1019.95 1019.87 1019.91 1019.87 1019.91
1012.71 1012.99 1013.39 1013.91 1014.23 1014.51 1015.27 1015.79 1016.39 1016.79 1017.11 1017.47 1017.63 1017.79 1017.99 1018.15 1018.27 1018.39 1018.59 1018.79 1018.91 1019.15 1019.47 1019.71 1019.87 1019.95 1020.07 1020.19 1020.43 1020.55 1020.59 1020.63 1020.67 1020.63 1020.71 1020.75 1020.79 1020.71 1020.63 1020.59 1020.59 1020.59 1020.47 1020.27 1020.19 1020.15 1020.27 1020.35 1020.35 1020.31 1020.23 1020.27 1020.35 1020.31 1020.23 1020.03 1019.95 1019.63 1019.43 1019.47 1019.51 1019.59 1019.71
1012.87 1013.23 1013.59 1013.79 1014.27 1014.71 1015.19 1015.67 1016.19 1016.75 1017.07 1017.39 1017.55 1017.67 1017.87 1018.07 1018.27 1018.35 1018.43 1018.63 1018.83 1018.99 1019.35 1019.59 1019.75 1019.91 1020.07 1020.19 1020.35 1020.43 1020.47 1020.51 1020.55 1020.51 1020.55 1020.59 1020.59 1020.55 1020.43 1020.15 1020.11 1020.11 1020.19 1020.03 1019.75 1019.67 1019.63 1019.71 1019.91 1019.79 1019.83 1019.99 1019.83 1019.71 1019.83 1019.87 1019.55 1019.31 1019.31 1019.35 1019.43 1019.47 1019.51
1013.07 1013.47 1013.75 1014.07 1014.71 1015.11 1015.43 1015.87 1016.15 1016.59 1017.03 1017.27 1017.47 1017.63 1017.79 1018.03 1018.19 1018.31 1018.39 1018.47 1018.67 1018.83 1019.11 1019.39 1019.63 1019.87 1020.03 1020.19 1020.27 1020.27 1020.35 1020.43 1020.47 1020.47 1020.47 1020.43 1020.47 1020.47 1020.47 1020.27 1019.91 1019.79 1019.79 1019.75 1019.59 1019.51 1019.47 1019.51 1019.43 1019.39 1019.43 1019.51 1019.51 1019.39 1019.35 1019.31 1019.31 1019.35 1019.39 1019.43 1019.47 1019.51 1019.59
1012.67 1012.99 1013.39 1013.87 1014.51 1015.03 1015.51 1015.99 1016.31 1016.55 1016.87 1017.11 1017.31 1017.51 1017.71 1017.91 1018.03 1018.15 1018.31 1018.39 1018.51 1018.63 1018.95 1019.23 1019.51 1019.79 1019.91 1019.99 1019.99 1019.99 1020.03 1020.15 1020.19 1020.19 1020.27 1020.31 1020.27 1020.31 1020.35 1020.31 1020.27 1019.87 1019.51 1019.51 1019.47 1019.35 1019.39 1019.35 1019.27 1019.23 1019.23 1019.19 1019.19 1019.23 1019.19 1019.19 1019.27 1019.35 1019.35 1019.35 1019.43 1019.47 1019.59
Wind_Speed
12 13 11 11 12 12 12 12 13 11 11 10 11 11 10 8 9 9 9 10 11 9 7 8 7 7 7 6 7 7 7 7 7 7 7 6 5 5 4 3 3 1 0 2 3 4 2 4 5 4 3 3 3 4 4 4 4 3 3 3 4 4 4
12 12 12 11 12 12 12 12 11 10 10 11 11 10 9 10 9 9 9 9 9 9 8 7 7 6 7 7 6 7 7 7 7 7 6 6 4 3 3 3 2 1 3 4 5 4 4 4 4 4 4 3 4 4 4 4 4 3 3 3 4 3 3
11 12 12 12 11 12 13 12 11 10 11 11 11 10 10 10 9 11 11 10 9 8 7 8 7 7 8 8 8 7 8 7 6 7 7 6 4 4 3 3 2 3 4 5 5 4 3 3 3 3 4 4 4 3 3 4 3 3 2 2 3 3 3
11 12 12 12 12 12 12 12 12 11 10 11 11 11 9 10 9 9 10 11 10 8 8 7 7 7 8 9 9 8 7 6 6 6 6 5 4 3 3 3 3 3 5 4 4 4 3 3 4 4 4 4 4 4 4 4 4 3 3 3 3 2 2
11 12 12 13 13 13 12 12 12 12 12 11 13 12 9 8 9 10 10 9 9 9 9 8 7 6 6 6 6 6 7 7 6 6 5 4 4 3 3 3 3 3 2 4 4 4 4 4 4 3 4 4 4 4 5 5 4 4 4 3 3 3 3
14 13 13 13 13 12 12 12 13 14 14 14 15 13 12 12 9 11 10 10 9 8 8 8 8 7 7 6 7 7 6 5 5 5 6 5 4 3 3 3 4 3 3 4 4 4 3 3 3 4 4 4 5 5 5 6 6 6 6 5 5 5 5
14 13 13 13 13 13 13 13 13 12 13 14 13 12 11 11 12 11 10 11 10 11 10 9 7 7 6 7 7 8 7 6 6 7 6 5 3 3 2 3 3 2 1 2 3 2 3 3 3 3 3 4 4 4 4 5 6 6 6 6 7 7 5
13 13 13 13 14 13 13 13 12 12 12 12 12 12 12 11 11 11 11 10 10 9 9 9 7 7 6 6 7 8 7 5 5 6 5 5 4 4 3 3 3 1 1 2 2 5 3 3 2 3 4 4 4 4 5 5 5 5 6 6 7 7 6
10 12 14 14 14 13 12 12 12 13 14 14 13 12 12 11 11 11 10 10 9 10 9 9 8 7 6 6 7 7 6 7 6 5 5 4 4 4 3 2 2 1 3 3 3 3 4 3 3 3 4 4 4 4 5 4 4 4 5 5 5 6 6
12 13 12 12 11 11 12 12 11 12 12 11 11 12 11 10 10 10 9 10 9 10 10 9 8 7 7 6 6 6 7 7 7 6 5 4 4 4 3 2 0 1 2 1 1 4 4 4 3 3 4 4 4 4 4 4 4 4 4 5 5 5 6
10 12 13 13 12 11 11 12 13 12 11 11 11 10 10 10 10 10 9 9 9 10 10 8 7 8 7 7 6 6 6 6 6 5 4 4 2 3 1 0 1 1 0 2 3 3 1 1 2 3 3 4 3 3 3 4 4 4 5 5 4 4 5
11 12 12 13 12 12 13 12 10 9 9 10 10 10 10 9 9 9 9 10 9 10 9 8 8 7 7 6 6 5 4 4 4 4 4 4 3 4 3 3 3 1 3 3 5 4 3 2 0 1 3 3 3 3 2 2 4 4 3 3 4 5 5
11 11 12 14 13 11 10 10 11 10 11 10 10 10 9 9 9 9 10 10 9 9 9 9 9 8 8 7 6 5 4 3 3 3 4 4 4 2 2 1 1 3 2 2 4 4 4 3 3 2 2 1 2 2 1 1 2 4 4 4 4 4 4
12 11 11 10 11 13 13 12 10 10 10 10 9 9 9 8 9 10 11 10 9 9 9 8 9 8 8 7 6 5 3 3 2 1 2 3 4 4 4 4 3 3 2 3 4 3 3 3 3 3 2 1 1 1 0 1 2 2 2 3 3 4 4
11 12 11 12 11 12 12 11 9 9 9 9 10 10 9 9 9 9 8 9 10 10 10 9 9 8 8 7 7 5 4 4 3 2 3 4 4 3 2 1 0 2 2 2 3 2 2 2 3 4 3 1 1 1 0 1 1 0 1 2 3 3 3
11 12 13 12 13 12 12 12 11 11 10 9 11 10 8 7 8 9 10 11 10 10 9 8 8 9 8 8 6 4 4 4 4 4 3 2 3 2 1 1 2 2 1 3 2 0 1 2 2 3 4 4 3 2 1 2 2 0 3 2 2 2 2
10 12 13 12 12 12 12 12 10 9 10 11 11 11 8 7 9 10 10 11 11 10 9 8 8 8 8 8 6 5 4 4 4 4 2 0 1 2 2 2 0 1 3 2 1 1 1 2 1 1 1 4 3 3 3 2 2 2 1 2 3 2 2
11 11 13 12 11 10 9 13 13 11 11 11 11 9 7 8 10 11 11 11 11 10 8 8 9 9 8 8 7 5 5 4 4 3 1 1 3 3 3 3 1 0 1 1 1 1 0 0 1 1 2 1 2 2 3 3 3 1 2 3 3 3 2
13 11 14 14 13 12 11 11 12 12 11 11 10 8 8 10 11 11 11 11 10 9 8 9 10 10 9 8 8 6 5 4 4 4 2 3 4 3 2 2 0 1 3 3 3 1 1 1 2 2 3 3 2 0 2 3 4 4 4 4 2 4 3
12 13 12 11 12 12 11 9 8 9 10 10 9 8 9 10 11 9 9 10 9 10 9 9 9 10 9 8 7 7 6 5 4 4 4 4 4 1 2 3 1 2 3 2 1 1 1 1 1 2 2 3 4 1 2 4 6 6 5 5 4 4 3
12 13 14 13 12 11 12 11 9 9 8 8 8 8 9 9 9 9 9 9 10 9 9 9 9 8 8 8 8 7 6 5 4 5 4 4 3 3 4 2 1 3 3 3 2 2 3 3 3 3 3 3 3 2 3 4 8 6 7 5 4 4 3
12 13 12 11 13 12 11 12 12 11 10 7 8 8 9 9 9 10 9 8 10 9 10 9 8 7 6 7 7 8 6 7 5 5 4 4 4 4 4 2 4 4 3 2 1 0 2 2 2 3 4 4 3 2 3 5 7 7 7 6 5 5 1
14 14 16 16 17 16 14 12 11 11 10 9 9 10 10 9 8 9 9 9 8 9 9 8 8 7 6 6 6 7 6 6 6 5 5 4 4 4 4 3 4 4 3 2 1 0 1 2 2 3 3 4 3 3 4 4 6 8 7 7 6 3 2
12 10 11 11 9 10 12 11 11 11 11 10 10 10 10 10 10 10 10 9 9 9 8 8 7 6 6 6 5 5 6 5 6 6 5 5 5 6 5 4 4 4 3 3 3 2 2 2 3 3 2 2 4 3 4 5 6 9 8 8 6 6 3
12 11 12 13 14 13 13 11 13 13 10 11 11 9 9 9 10 10 9 9 9 8 8 7 6 5 6 6 5 5 5 5 5 6 6 6 6 5 4 4 5 3 2 3 3 3 2 2 2 3 3 3 3 7 5 3 5 7 9 9 8 4 3
13 12 11 10 10 12 14 13 11 12 13 13 12 11 11 9 9 9 9 8 8 8 7 7 7 6 6 6 6 6 5 4 4 4 5 6 5 4 3 4 3 4 4 4 3 4 3 3 3 4 4 4 3 4 4 4 5 4 8 9 8 7 3
13 14 14 12 11 10 10 11 13 13 14 13 13 12 11 9 9 9 9 8 7 8 8 7 6 6 6 6 6 5 5 4 4 5 5 5 5 4 3 4 5 4 4 4 4 3 4 4 4 4 4 4 4 4 4 4 4 4 6 9 8 8 7
14 11 9 9 11 10 10 11 10 10 12 11 13 12 10 10 10 9 8 8 8 8 7 6 5 5 6 6 6 6 5 5 4 4 5 4 3 3 4 4 4 4 4 5 4 4 4 4 3 4 4 4 4 4 5 6 8 3 5 9 9 8 8
16 16 14 13 12 9 9 9 9 10 10 9 10 9 9 10 10 8 8 8 9 7 6 7 6 6 5 6 6 5 5 5 5 4 3 3 4 4 4 4 4 4 4 4 4 4 4 4 4 4 4 5 6 4 4 5 5 4 3 6 9 9 8
13 13 13 12 13 13 12 9 8 8 9 8 7 8 8 9 9 8 8 9 6 6 6 6 5 6 5 5 5 5 4 4 4 4 3 4 4 4 4 4 4 4 4 3 3 3 4 5 4 3 4 4 6 6 5 4 4 5 5 4 8 8 9
14 15 14 13 13 12 11 11 10 10 10 9 9 8 9 9 10 9 10 6 5 6 7 6 5 5 5 5 5 5 4 4 4 4 4 4 4 4 4 4 3 4 4 3 3 3 4 6 4 4 5 4 5 6 6 6 4 4 5 6 8 9 9
12 12 12 11 10 11 11 11 11 12 12 9 11 9 7 8 10 10 8 5 6 7 8 7 6 5 5 5 4 5 4 4 4 5 5 5 4 5 5 5 5 6 6 4 4 4 5 6 4 4 4 5 6 6 6 6 4 5 4 4 5 6 8
14 14 14 13 12 10 9 9 11 11 12 12 8 8 7 7 7 9 6 7 7 7 7 7 6 5 5 5 5 4 4 6 6 5 5 4 4 5 5 6 6 4 4 4 4 4 4 4 4 5 4 5 6 5 5 4 4 5 4 3 4 3 4
13 11 11 13 12 10 11 10 9 9 9 9 8 7 7 7 7 7 8 7 7 7 7 6 5 6 5 5 5 6 6 6 8 8 6 6 6 6 6 5 4 5 6 6 6 6 5 4 5 5 6 6 5 5 5 6 5 6 6 6 5 6 4
12 13 13 13 13 13 12 10 10 10 11 9 7 8 7 6 7 7 8 7 7 8 7 7 5 5 5 4 4 5 5 6 6 6 6 6 5 6 6 6 6 7 7 6 6 6 5 5 6 6 6 6 6 5 4 4 4 6 7 7 7 7 6
12 12 11 10 9 8 11 12 12 11 11 9 8 8 8 7 7 7 8 7 7 8 8 6 6 5 5 4 4 5 5 5 6 5 6 6 6 6 6 8 10 8 6 7 8 11 10 8 6 7 6 6 7 5 6 6 6 6 7 7 7 7 8
11 9 10 9 9 9 10 11 12 11 11 10 8 8 8 7 7 7 7 7 7 8 7 6 6 5 5 4 4 5 5 5 5 6 6 6 6 6 6 7 7 9 11 10 9 7 9 10 13 11 8 6 6 6 8 7 4 5 6 5 5 5 5
11 11 11 11 11 11 12 11 11 12 11 9 9 9 8 8 7 8 7 7 8 7 7 6 6 6 6 6 5 5 5 6 6 7 6 7 6 6 7 7 7 7 7 8 10 12 11 12 12 12 11 10 9 6 4 5 6 5 6 7 6 7 6
Wind_Direction
135 140 144 143 146 147 147 145 142 140 137 136 138 139 132 123 125 122 117 114 113 109 104 99 97 92 92 93 95 100 100 98 97 97 94 95 103 114 106 103 108 152 228 18 8 54 65 77 79 75 56 39 33 32 58 64 53 34 29 28 43 30 29
141 143 143 146 141 140 141 142 141 139 138 140 139 134 121 126 129 120 117 114 114 114 109 99 91 85 93 94 96 96 97 99 99 98 95 95 95 105 124 130 127 37 25 54 74 73 77 56 62 64 56 25 8 4 21 47 60 39 25 21 49 38 26
137 141 144 147 143 142 141 142 144 142 142 141 133 125 129 135 131 126 122 117 112 107 99 95 94 94 97 101 97 97 102 106 105 107 106 109 109 112 98 90 63 39 37 65 69 78 73 67 45 58 74 49 19 2 352 8 32 46 19 17 54 41 38
138 142 143 140 137 138 141 143 144 142 140 134 123 115 125 127 124 121 120 120 116 106 98 94 97 98 100 103 104 106 105 102 105 110 111 109 109 93 73 42 39 36 55 70 77 90 114 103 78 57 46 52 39 14 3 353 0 14 12 10 38 78 27
131 133 136 140 141 143 145 146 145 143 136 123 114 123 127 119 121 120 118 115 113 114 113 110 103 100 96 100 107 113 118 118 114 107 103 102 101 86 72 49 41 60 74 79 89 92 80 67 67 61 32 41 45 31 15 7 8 354 351 0 11 38 62
143 143 144 143 143 145 147 144 144 142 138 131 135 136 138 135 132 125 119 112 113 112 111 106 102 100 98 100 106 110 105 96 95 94 98 105 107 105 96 69 88 106 74 60 64 72 70 69 63 52 49 43 48 42 25 19 16 14 3 357 358 350 23
146 142 143 144 145 146 144 142 142 139 133 136 135 138 136 137 136 131 125 125 127 124 118 111 112 105 105 99 98 104 107 109 105 97 95 91 93 79 53 51 81 94 132 73 69 86 83 72 69 70 68 58 56 48 38 31 25 17 18 21 18 6 7
140 140 141 143 144 142 141 141 139 133 134 137 140 140 138 141 138 134 132 131 127 121 120 120 114 110 104 96 94 96 99 97 99 101 98 100 95 90 85 95 103 118 85 83 110 120 115 99 79 73 66 66 56 53 42 37 33 25 29 24 19 15 10
135 139 142 144 143 142 143 142 139 140 142 144 143 140 142 143 140 136 132 130 131 129 129 122 119 110 104 98 92 93 97 105 111 113 112 116 120 122 137 130 102 53 77 68 76 116 130 139 120 99 83 68 62 59 52 41 35 32 35 27 25 18 12
141 141 138 136 139 141 142 138 136 139 143 144 141 144 150 146 138 132 133 136 135 128 124 119 115 113 106 101 100 99 96 107 122 123 138 142 159 159 179 174 292 351 356 346 114 130 162 143 139 105 86 74 59 64 67 48 37 38 35 30 25 21 19
143 139 139 140 142 141 138 140 145 149 149 146 145 149 150 140 137 138 141 140 133 127 125 120 117 115 112 110 106 105 109 112 124 135 146 157 175 180 162 23 0 314 324 28 25 7 16 82 123 97 80 80 75 60 63 79 64 48 34 25 20 28 30
143 145 148 144 141 142 147 147 142 143 147 147 149 150 145 137 140 144 142 139 132 128 125 122 122 120 117 116 114 119 124 127 120 132 148 158 182 189 182 205 205 127 81 92 79 84 112 109 42 115 108 92 84 80 45 56 85 77 56 35 25 27 25
147 150 151 150 150 150 141 144 148 150 153 153 150 149 146 140 141 140 141 137 129 130 129 132 129 127 124 124 126 132 132 108 124 145 164 159 159 139 116 158 52 77 72 71 96 79 61 72 105 124 147 149 103 79 64 37 66 73 61 45 39 32 24
144 147 150 149 147 148 153 152 148 152 155 150 150 151 145 141 143 144 147 138 134 136 134 137 136 134 133 135 135 138 144 176 162 143 167 133 113 124 156 172 164 147 135 97 92 96 82 76 95 122 137 201 151 169 70 12 65 72 62 69 57 39 25
149 150 152 153 154 153 150 151 154 160 157 153 150 155 152 148 142 145 137 135 140 141 145 144 138 139 140 140 142 157 176 157 159 180 141 115 116 115 120 119 13 93 122 136 154 160 140 121 106 114 143 203 212 201 276 324 311 151 119 74 61 60 37
151 155 158 162 163 160 157 156 161 163 156 155 158 159 157 149 145 143 138 142 144 146 150 141 138 141 146 146 150 156 172 182 154 127 104 123 136 185 208 296 323 27 101 112 106 135 105 68 102 128 156 178 211 226 230 273 277 344 50 66 110 95 66
155 160 163 166 167 165 162 156 161 156 156 160 162 166 158 148 139 136 140 144 147 151 155 138 136 146 147 149 150 156 179 152 132 129 160 79 171 246 232 256 164 153 186 193 201 209 111 85 24 343 165 160 193 211 221 240 258 67 348 25 29 95 67
158 162 162 165 168 163 168 162 161 164 163 164 166 164 149 142 139 142 146 150 151 152 140 128 136 143 149 149 149 162 162 157 144 158 158 117 217 209 223 254 89 157 196 243 233 246 37 57 295 306 304 328 130 184 199 217 221 161 289 323 5 10 90
164 165 168 168 168 166 166 171 168 166 167 165 166 159 150 143 143 150 150 151 150 139 136 139 140 140 143 150 152 159 156 155 152 172 186 201 201 205 240 256 221 168 190 215 235 219 159 279 319 286 263 284 297 177 214 221 221 203 248 289 332 346 22
160 161 164 165 164 161 166 170 168 165 168 170 161 151 148 145 148 148 144 138 137 139 139 137 139 140 144 145 155 161 159 164 169 172 192 217 217 208 273 266 306 246 208 223 268 227 257 269 235 272 263 257 264 243 216 220 234 211 235 253 287 319 349
166 163 162 164 166 167 165 167 164 159 160 167 156 140 134 132 138 140 138 134 133 136 135 138 139 142 146 148 161 165 165 163 176 186 201 216 224 227 249 254 204 214 188 190 198 224 259 263 292 295 281 265 252 215 223 227 228 210 225 240 270 297 335
167 164 163 166 166 169 171 170 165 162 161 154 146 139 137 142 146 142 140 135 135 140 141 143 141 148 148 141 155 166 170 164 190 188 203 208 225 230 246 223 192 199 218 205 215 231 279 297 274 268 273 269 259 268 248 249 240 215 218 230 241 271 356
170 176 173 174 171 171 174 167 160 157 153 154 149 144 144 145 143 137 135 136 139 142 146 143 146 154 157 147 152 164 170 172 181 189 204 216 215 230 238 222 223 233 217 173 264 273 278 274 257 265 266 278 285 272 265 260 246 225 214 219 231 248 305
164 165 167 167 167 158 157 159 157 153 154 151 152 150 151 148 149 146 142 142 145 145 149 149 157 163 159 157 160 180 183 174 173 187 201 205 219 222 230 221 220 213 209 189 212 236 252 266 297 303 283 272 285 256 253 269 256 232 213 213 218 220 224
155 160 160 162 160 158 162 162 160 155 150 148 151 152 145 139 139 140 141 144 146 147 149 160 164 167 164 170 171 181 185 180 161 181 195 201 216 213 204 207 211 219 203 203 199 226 248 281 285 295 296 287 269 289 294 271 279 251 213 209 213 223 206
149 154 152 154 158 163 158 152 152 157 149 154 155 151 146 140 140 141 144 149 146 149 159 169 174 181 177 171 175 181 182 182 177 179 188 206 225 236 225 211 212 220 214 234 219 249 274 280 272 271 283 289 306 298 288 286 289 264 213 207 212 216 203
141 139 151 160 153 149 153 156 162 162 156 157 155 154 151 143 142 149 151 151 151 167 176 178 174 171 181 176 173 177 186 187 184 190 201 203 211 209 208 197 205 215 219 228 246 249 269 263 256 259 275 291 289 291 291 271 269 283 211 202 207 216 218
134 130 132 133 140 149 153 155 159 156 155 154 152 151 149 149 155 155 152 152 169 184 181 165 169 162 165 174 177 185 186 189 192 190 201 209 182 185 204 215 222 217 215 229 223 229 244 249 256 260 279 288 295 289 289 293 300 265 202 196 204 210 222
141 142 144 141 144 150 151 150 153 155 145 140 144 146 151 151 152 158 156 167 184 177 171 170 165 158 160 169 174 183 190 196 197 199 201 207 205 193 206 216 220 234 225 221 227 226 237 247 254 269 283 298 295 293 289 290 295 272 199 200 200 209 220
136 132 137 146 149 151 151 146 138 127 126 134 141 151 152 150 153 161 165 186 177 167 169 163 164 158 162 172 176 186 193 201 208 210 211 209 207 207 222 243 244 240 219 208 200 216 236 251 260 270 281 282 298 303 301 300 280 276 244 193 203 211 214
137 137 143 147 150 145 143 145 145 138 142 147 144 156 161 160 159 163 178 187 156 167 165 165 157 158 168 178 180 186 198 201 214 217 216 218 197 211 233 250 244 252 264 249 242 229 233 252 245 245 258 274 281 290 295 294 284 260 251 221 198 209 213
119 121 127 131 138 143 145 146 149 148 144 150 160 168 158 156 158 167 186 166 170 162 161 159 157 165 175 177 180 197 196 199 220 221 218 224 213 219 223 228 239 235 256 253 244 234 238 255 249 249 253 263 268 275 278 284 280 251 249 264 244 211 208
133 139 142 146 148 142 138 144 147 155 154 155 165 158 156 153 163 167 159 162 162 154 152 159 164 168 177 179 185 199 200 202 210 223 231 232 236 235 230 227 224 235 248 239 233 237 243 253 254 255 260 268 271 273 278 274 261 253 256 245 259 249 215
141 146 147 144 142 137 135 155 165 155 153 152 161 156 152 151 154 158 156 154 155 150 155 159 170 171 184 189 188 193 199 204 214 211 223 234 228 230 243 243 231 227 237 231 220 220 236 236 241 241 243 251 259 272 285 277 248 243 240 241 230 235 221
150 148 147 150 158 158 158 160 152 155 154 160 159 153 152 152 153 156 156 159 153 150 155 169 179 175 191 197 192 208 203 206 216 219 219 234 237 238 225 228 234 231 245 240 209 203 213 227 234 234 230 220 230 235 273 292 273 244 217 222 210 214 224
147 150 156 155 144 138 145 150 151 156 157 159 160 155 155 156 159 161 160 157 156 153 158 170 179 183 203 197 203 223 224 220 224 224 225 222 232 243 265 244 233 227 222 251 239 227 225 210 219 223 218 218 232 208 210 223 235 263 211 207 209 222 223
149 150 155 140 126 141 145 151 153 151 156 161 159 159 159 160 162 162 164 161 160 159 167 170 179 187 205 208 217 220 225 232 236 242 238 239 234 236 243 271 283 255 242 245 261 256 243 228 232 238 228 208 246 247 228 227 227 222 190 180 197 210 225
158 155 152 148 145 148 146 149 154 159 161 160 160 160 162 162 169 168 170 169 167 168 168 175 180 195 209 216 230 237 233 220 231 236 233 239 236 233 236 242 257 285 283 258 249 257 246 238 236 237 239 241 235 243 261 223 217 214 212 206 197 211 218